Home > Weather > Hong Kong > Past weeks

Flag for Hong Kong Weather for the Past 2 Weeks in Hong Kong, Hong Kong

Now
73 °F

Passing clouds.


Feels Like: 72 °F
Forecast: 68 / 72 °F
Wind: 9 mph from Southeast

Location: National Airport

Current Time: Feb 12, 2016 at 8:55:11 PM

Latest Report: Feb 12, 2016 at 8:30 PM


Visibility: N/A

Pressure: 29.83 "Hg

Humidity: 89%

Dew point: 70 °F

Location of Hong KongLocation

Historic Weather in Hong Kong — Graph

°F

Hong Kong Temperature Yesterday

Maximum temperature yesterday: 73 °F (at 4:00 PM)
Minimum temperature yesterday: 63 °F (at 5:00 AM)
Average temperature yesterday: 68 °F

High & Low Weather Summary for the Past Weeks

 TemperatureHumidityPressure
High79 °F (Feb 12, 12:00 PM)100% (Jan 29, 3:30 AM)30.36 "Hg (Jan 29, 3:30 AM)
Low46 °F (Feb 2, 1:00 PM)12% (Feb 8, 12:00 PM)29.83 "Hg (Feb 12, 3:30 PM)
Average60 °F64%30.14 "Hg
* Reported Jan 28 7:00 PM — Feb 12 7:30 PM, Hong Kong, Weather by CustomWeather, © 2016

Note: Actual official high and low records may vary slightly from our data, if they occured in-between our weather recording intervals... More about our weather records

Advertising

Hong Kong Weather History for the Previous 24 Hours

 ConditionsComfort  
Time TempWeatherWind HumidityBarometerVisibility
7:30 PM
Fri, Feb 12
73 °FPassing clouds.13 mph83%29.83 "HgN/A
7:00 PM73 °FPassing clouds.16 mph83%29.83 "HgN/A
6:30 PM73 °FPassing clouds.14 mph83%29.83 "HgN/A
6:00 PM75 °FScattered clouds.9 mph78%29.83 "HgN/A
5:30 PM75 °FScattered clouds.13 mph78%29.83 "HgN/A
5:00 PM73 °FScattered clouds.16 mph83%29.83 "HgN/A
4:30 PM75 °FScattered clouds.17 mph78%29.83 "HgN/A
4:00 PM77 °FScattered clouds.14 mph74%29.83 "HgN/A
3:30 PM77 °FScattered clouds.16 mph74%29.83 "HgN/A
3:00 PM77 °FScattered clouds.14 mph79%29.86 "HgN/A
2:30 PM79 °FScattered clouds.15 mph70%29.86 "HgN/A
2:00 PM79 °FScattered clouds.14 mph70%29.89 "HgN/A
1:30 PM75 °FScattered clouds.14 mph78%29.89 "HgN/A
1:00 PM79 °FScattered clouds.13 mph70%29.92 "HgN/A
12:30 PM77 °FScattered clouds.9 mph74%29.92 "HgN/A
12:00 PM79 °FScattered clouds.7 mph70%29.95 "HgN/A
11:30 AM77 °FScattered clouds.7 mph74%29.95 "HgN/A
11:00 AM75 °FScattered clouds.7 mph78%29.98 "HgN/A
10:30 AM75 °FScattered clouds.9 mph74%29.98 "HgN/A
10:00 AM75 °FScattered clouds.12 mph74%29.98 "HgN/A
9:30 AM72 °FScattered clouds.6 mph88%29.98 "HgN/A
9:00 AM72 °FScattered clouds.8 mph83%29.98 "HgN/A
8:30 AM70 °FScattered clouds.10 mph88%29.95 "Hg6 mi
8:00 AM70 °FScattered clouds.13 mph88%29.95 "Hg6 mi
7:30 AM70 °FScattered clouds.13 mph88%29.95 "Hg6 mi
7:00 AM70 °FScattered clouds.10 mph88%29.95 "Hg6 mi
5:00 AM68 °FPassing clouds.12 mph94%29.92 "Hg3 mi
4:30 AM68 °FPassing clouds.12 mph88%29.92 "Hg3 mi
4:00 AM68 °FPassing clouds.12 mph94%29.92 "Hg4 mi
3:30 AM68 °FPassing clouds.10 mph94%29.92 "Hg4 mi
3:00 AM68 °FPassing clouds.10 mph94%29.92 "Hg4 mi
2:30 AM68 °FPassing clouds.12 mph88%29.92 "Hg5 mi
2:00 AM68 °FPassing clouds.14 mph88%29.92 "Hg5 mi
1:30 AM68 °FPassing clouds.13 mph88%29.92 "Hg4 mi
1:00 AM68 °FPassing clouds.14 mph88%29.92 "Hg5 mi
12:30 AM68 °FPassing clouds.15 mph88%29.92 "Hg5 mi
12:00 AM70 °FPassing clouds.12 mph83%29.92 "Hg5 mi
11:30 PM
Thu, Feb 11
68 °FPassing clouds.14 mph88%29.92 "Hg5 mi
11:00 PM68 °FPassing clouds.12 mph88%29.95 "Hg4 mi
10:30 PM68 °FPassing clouds.13 mph88%29.95 "Hg5 mi
10:00 PM68 °FPassing clouds.14 mph88%29.95 "Hg4 mi
9:30 PM66 °FPassing clouds.13 mph88%29.95 "Hg4 mi
9:00 PM66 °FPassing clouds.17 mph88%29.92 "Hg4 mi
8:30 PM68 °FPassing clouds.16 mph83%29.92 "Hg4 mi
8:00 PM68 °FPassing clouds.13 mph83%29.92 "Hg5 mi
Weather by CustomWeather, © 2016

See weather overviewHow to use our weather pages